Location: Mauries
(43.6188°N, 0.3322°W)
Time: 06:09:46
(UTC+00:00)

Lacrosse 5 rocket - Pass Details

Date: 14 January 2026
Orbit: 401 x 481 km, 57.0° (Epoch: 15 February)

Event Time Altitude Azimuth Distance (km) Brightness Sun altitude
Exits shadow 06:20:54 - 338° (NNW) 1,735 3.5 -12.7°
Reaches altitude 10° 06:21:21 10° 344° (NNW) 1,682 3.5 -12.6°
Maximum altitude 06:22:19 11° 359° (N) 1,635 3.5 -12.4°
Drops below altitude 10° 06:23:17 10° 14° (NNE) 1,684 3.8 -12.3°
Sets 06:27:08 0° 53° (NE) 2,564 5.3 -11.6°
